Location: Newark
(43.4306°N, 0.3089°E)
Time: 05:10:32
(UTC+00:00)

SR - Pass Details

Date: 29 August 2019
Orbit: 576 x 880 km, 66.7° (Epoch: 18 September)

Event Time Altitude Azimuth Distance (km) Brightness Sun altitude
Rises 19:28:41 0° 329° (NNW) 3,296 ? -9.3°
Reaches altitude 10° 19:31:03 10° 330° (NNW) 2,404 ? -9.7°
Maximum altitude 19:36:39 85° 58° (ENE) 858 ? -10.6°
Drops below altitude 10° 19:42:33 10° 148° (SSE) 2,516 ? -11.6°
Enters shadow 19:42:41 - 148° (SSE) 2,569 ? -11.6°
